TimeEST,TemperatureF,Dew PointF,Humidity,Sea Level PressureIn,VisibilityMPH,Wind Direction,Wind SpeedMPH,Gust SpeedMPH,PrecipitationIn,Events,Conditions,WindDirDegrees,DateUTC
12:53 AM,41.0,33.1,73,30.17,10.0,Calm,Calm,-,N/A,,Overcast,0,2012-02-08 05:53:00
1:53 AM,39.0,33.1,79,30.17,10.0,Calm,Calm,-,N/A,,Overcast,0,2012-02-08 06:53:00
2:53 AM,41.0,33.1,73,30.18,10.0,West,3.5,-,N/A,,Overcast,280,2012-02-08 07:53:00
3:53 AM,41.0,34.0,76,30.18,10.0,Calm,Calm,-,0.00,Rain,Light Rain,0,2012-02-08 08:53:00
4:53 AM,41.0,33.1,73,30.16,10.0,SE,5.8,-,0.00,,Overcast,130,2012-02-08 09:53:00
5:53 AM,41.0,34.0,76,30.17,10.0,Calm,Calm,-,N/A,,Overcast,0,2012-02-08 10:53:00
6:53 AM,41.0,33.1,73,30.18,10.0,WNW,3.5,-,N/A,,Overcast,290,2012-02-08 11:53:00
7:53 AM,42.1,34.0,73,30.20,10.0,Calm,Calm,-,N/A,,Overcast,0,2012-02-08 12:53:00
8:53 AM,43.0,35.1,74,30.24,10.0,West,3.5,-,N/A,,Overcast,280,2012-02-08 13:53:00
9:53 AM,44.1,37.0,76,30.26,10.0,Calm,Calm,-,0.01,Rain,Light Rain,0,2012-02-08 14:53:00
10:53 AM,46.0,36.0,68,30.26,10.0,NNW,4.6,-,0.00,,Overcast,330,2012-02-08 15:53:00
11:53 AM,48.0,35.1,61,30.25,10.0,SW,5.8,-,N/A,,Scattered Clouds,220,2012-02-08 16:53:00
12:53 PM,48.0,34.0,58,30.22,10.0,WNW,6.9,-,N/A,,Overcast,290,2012-02-08 17:53:00
1:53 PM,48.0,34.0,58,30.21,10.0,West,10.4,-,N/A,,Mostly Cloudy,260,2012-02-08 18:53:00
2:53 PM,48.0,33.1,56,30.20,10.0,NNW,8.1,-,N/A,,Mostly Cloudy,330,2012-02-08 19:53:00
3:53 PM,46.9,30.9,54,30.22,10.0,West,15.0,-,N/A,,Overcast,270,2012-02-08 20:53:00
4:53 PM,44.1,30.9,60,30.25,10.0,West,18.4,23.0,N/A,,Overcast,280,2012-02-08 21:53:00
5:53 PM,43.0,30.9,62,30.25,10.0,West,9.2,-,N/A,,Mostly Cloudy,260,2012-02-08 22:53:00
6:53 PM,43.0,30.9,62,30.26,10.0,West,6.9,-,N/A,,Overcast,270,2012-02-08 23:53:00
7:53 PM,43.0,30.9,62,30.27,10.0,NW,4.6,-,N/A,,Overcast,310,2012-02-09 00:53:00
8:53 PM,42.1,28.9,60,30.28,10.0,North,9.2,-,N/A,,Overcast,360,2012-02-09 01:53:00
9:53 PM,39.9,30.9,70,30.29,10.0,NNW,6.9,-,N/A,,Overcast,340,2012-02-09 02:53:00
10:53 PM,39.0,28.9,67,30.30,10.0,NNW,8.1,-,N/A,,Overcast,340,2012-02-09 03:53:00
11:53 PM,37.9,28.0,68,30.30,10.0,North,9.2,-,N/A,,Overcast,10,2012-02-09 04:53:00